Погода в Полховском Майдане

Россия / Нижегородская область     54°51′05″N   42°38′39″E
темп.,
°C
ветер,
м/с
пор.,
м/с
влажн.,
%
обл.,
%
осадки,
мм/ч
давл.,
гПа
погр.,
м
4 марта, чт
чт400:00−1з61294100 0.3 1008701
03:00−2зюз61292100 0.4 1005654
06:00−2зюз81494100 0.2 1002758
09:000зюз91596100 1.8 999985
12:000з91594100 0.6 998997
15:000з81395100 0.7 999845
18:00−1зюз4885100 1.1 1000314
21:00−3зюз3590100 1.1 1000110
5 марта, пт
пт500:00−4ссз2393100 0.2 100069
03:00−7ссз2392100 0.3 100241
06:00−11ссз339591 0.0 100428
09:00−9сз229560 0.0 100696
12:00−5зсз238777 0.0 1007438
15:00−4зюз348486 0.0 1008658
18:00−7юз239382 0.0 100925
21:00−8зюз489581 0.0 1011172
6 марта, сб
сб600:00−11зсз349533 0.0 101252
03:00−13зсз239519 0.0 101321
06:00−15зсз23958 0.0 101421
09:00−12сз35945 0.0 1015215
12:00−8сз358286 0.0 1016659
15:00−8сз467961 0.0 1016973
18:00−13сз338988 0.0 101622
21:00−16зсз239144 0.0 101720
7 марта, вс
вс700:00−16юз33900 0.0 101623
03:00−17ююз47950 0.0 1014106
06:00−15ююз5119227 0.0 1012245
09:00−9ююз8168263 0.0 1008677
12:00−5юз91683100 0.0 10041072
15:00−5юз101793100 1.4 9991313
18:00−4юз81594100 1.9 9951071
21:00−2зюз91487100 3.8 993933
8 марта, пн
пн800:00−6зсз51189100 0.8 994600
03:00−11зюз5118774 0.9 997259
06:00−11зюз4990100 0.0 997254
09:00−10з489094 0.0 999334
12:00−7з688167 0.0 10011114
15:00−7з688383 0.1 10041022
18:00−10з478686 0.1 1006101
21:00−13з379372 0.1 1009102